#timestamp,LO_Frequency,Hit,StdDev 
1637989215.4,286047000.8,N
1637989235.2,286047000.7,N
1637989255.0,286046998.6,N
1637989255.9,286046998.6,N
1637989275.8,286047000.7,N
1637989295.6,286046998.3,N
1637989315.5,286047000.5,N
1637989335.3,286046999.9,N
1637989355.1,286046998.3,N
1637989375.9,286046999.4,N
1637989395.7,286046998.5,N
1637989415.5,286046998.5,N
1637989435.4,286046998.5,N
1637989455.2,286046998.7,N
1637989475.1,286047001.1,N
1637989476.0,286047001.1,N
1637989495.8,286047000.2,N
1637989515.6,286046999.9,N
1637989535.5,286047000.3,N
1637989555.3,286047002.5,N
1637989575.1,286047001.5,N
1637989595.9,286047002.5,N
1637989615.7,286047001.9,N
1637989635.6,286047002.7,N
1637989655.4,286047002.1,N
1637989675.2,286047001.6,N
1637989695.1,286047002.3,N
1637989696.0,286047002.3,N
1637989715.8,286047002.8,N
1637989735.6,286047000.6,N
1637989755.5,286047000.2,N
1637989775.3,286046999.9,N
1637989795.2,286047001.2,N
1637989815.9,286047000.1,N
1637989835.7,286047000.6,N
1637989855.6,286047000.7,N
1637989875.4,286047000.5,N
1637989895.2,286047000.7,N
1637989915.1,286047000.3,N
1637989916.0,286047000.3,N
1637989935.8,286047001.1,N
1637989955.7,286046999.0,N
1637989975.5,286046998.4,N
1637989995.3,286047001.1,N
1637990015.2,286047001.0,N
1637990035.0,286046998.1,N
1637990035.9,286046998.1,N
1637990055.7,286046999.1,N
1637990075.6,286046998.7,N
1637990095.4,286046998.8,N
1637990115.3,286046996.5,N
1637990135.1,286046999.1,N
1637990155.8,286046999.3,N
1637990175.7,286046999.1,N
1637990195.5,286046998.7,N
1637990215.4,286046996.9,N
1637990235.2,286046998.9,N
1637990255.0,286046998.9,N
1637990255.9,286046998.9,N
1637990275.8,286046999.0,N
1637990295.6,286046999.4,N
1637990315.4,286047000.7,N
1637990335.3,286047001.1,N
1637990355.1,286047000.6,N
1637990375.9,286046999.7,N
1637990395.7,286046999.8,N
1637990415.5,286047002.2,N
1637990435.4,286047002.6,N
1637990455.2,286047002.2,N
1637990475.0,286047000.4,N
1637990475.9,286047000.4,N
1637990495.8,286046998.1,N
1637990515.6,286046999.6,N
1637990535.5,286046997.6,N
1637990555.3,286046996.7,N
1637990575.1,286046996.6,N
1637990595.9,286046996.5,N
1637990615.7,286046997.0,N
1637990635.5,286046996.5,N
1637990655.4,286046999.2,N
1637990675.2,286046998.8,N
1637990695.1,286046999.1,N
1637990696.0,286046999.1,N
1637990715.8,286046999.2,N
1637990735.6,286046999.0,N
1637990755.5,286046999.3,N
1637990775.3,286046998.1,N
1637990795.2,286046998.7,N
1637990815.9,286046998.9,N
1637990835.7,286046996.9,N
1637990855.6,286046999.2,N
1637990875.4,286047000.7,N
1637990895.2,286046998.2,N
1637990915.1,286047001.1,N
1637990916.0,286047001.1,N
1637990935.8,286047001.1,N
1637990955.7,286047000.5,N
1637990975.5,286047000.8,N
1637990995.3,286047000.3,N
1637991015.2,286046999.9,N
1637991035.0,286047000.3,N
1637991035.9,286047000.3,N
1637991055.8,286047001.2,N
1637991075.6,286047000.7,N
1637991095.4,286047001.1,N
1637991115.3,286047002.3,N
1637991135.1,286047001.9,N
1637991155.8,286047000.2,N
1637991175.7,286046999.9,N
1637991195.5,286047000.2,N
1637991215.4,286047000.2,N
1637991235.2,286047002.4,N
1637991255.0,286047002.4,N
1637991255.9,286047002.4,N
1637991275.8,286046999.9,N
1637991295.6,286047000.1,N
1637991315.4,286046998.1,N
1637991335.3,286046998.1,N
1637991355.1,286046998.8,N
1637991375.9,286046998.9,N
1637991395.7,286046998.6,N
1637991415.5,286046998.2,N
1637991435.4,286047000.6,N
1637991455.2,286046999.8,N
1637991475.0,286047002.3,N
1637991476.0,286047002.3,N
1637991495.8,286046999.8,N
1637991515.6,286047002.2,N
1637991535.5,286047002.3,N
1637991555.3,286047001.3,N
1637991575.1,286046999.8,N
1637991595.9,286047002.3,N
1637991615.7,286046999.8,N
1637991635.6,286047002.0,N
1637991655.4,286047001.9,N
1637991675.2,286047001.6,N
1637991695.1,286047001.9,N
1637991696.0,286047001.9,N
1637991715.8,286047001.3,N
1637991735.6,286047005.5,Y
1637991755.5,286047004.3,P
1637991775.3,286047001.5,N
1637991795.2,286047001.7,N
1637991815.9,286046999.8,N
1637991835.7,286047001.6,N
1637991855.6,286047002.6,N
1637991875.4,286047000.4,N
1637991895.2,286046999.9,N
1637991915.1,286047000.1,N
1637991916.0,286047000.1,N
1637991935.8,286047000.1,N
1637991955.7,286047000.3,N
1637991975.5,286047000.3,N
1637991995.3,286047002.3,N
1637992015.2,286047002.4,N
1637992035.0,286047002.1,N
1637992035.9,286047002.1,N
1637992055.8,286047002.3,N
1637992075.6,286047001.5,N
1637992095.4,286047001.5,N
1637992115.3,286047001.3,N
1637992135.1,286047002.6,N
1637992155.8,286047001.5,N
1637992175.7,286047000.0,N
1637992195.5,286047000.6,N
1637992215.4,286047000.2,N
1637992235.2,286047002.1,N
1637992255.0,286047001.4,N
1637992255.9,286047001.4,N
1637992275.8,286047002.4,N
1637992295.6,286047002.3,N
1637992315.5,286047001.9,N
1637992335.3,286047002.3,N
1637992355.1,286047002.2,N
1637992375.9,286047002.4,N
1637992395.7,286047000.1,N
1637992415.5,286046999.8,N
1637992435.4,286047000.8,N
1637992455.2,286047000.5,N
1637992475.1,286046999.9,N
1637992476.0,286046999.9,N
1637992495.8,286046999.9,N
1637992515.6,286047002.8,N
1637992535.5,286047000.1,N
1637992555.3,286047000.8,N
1637992575.1,286047000.5,N
1637992595.9,286047000.5,N
1637992615.7,286047001.2,N
1637992635.6,286046998.1,N
1637992655.4,286046999.9,N
1637992675.2,286047000.6,N
1637992695.1,286047000.9,N
1637992696.0,286047000.9,N
1637992715.8,286046998.5,N
1637992735.1,286047001.1,N
1637992755.8,286047000.7,N
1637992775.7,286047000.5,N
1637992795.5,286047001.1,N
